Location: ??????
(41.3747°N, 22.5491°E)
Time: 15:52:39
(UTC+00:00)

NOSS 3-3 (A) - Pass Details

Date: 01 December 2020
Orbit: 819 x 1393 km, 63.4° (Epoch: 14 January)

Event Time Altitude Azimuth Distance (km) Brightness Sun altitude
Rises 17:34:51 0° 324° (NW) 4,016 7.6 -28.2°
Reaches altitude 10° 17:37:26 10° 324° (NW) 3,128 7.0 -28.7°
Maximum altitude 17:45:07 86° 238° (WSW) 1,307 4.5 -30.1°
Enters shadow 17:48:02 46° 151° (SSE) 1,726 5.0 -30.7°
